Flag for Germany Weather past 2 weeks in Magdeburg, Saxony-Anhalt, Germany

Now
62 °F

Scattered clouds.


Feels Like: 62 °F
Forecast: 54 / 66 °F
Wind: 7 mph from West

Location: Magdeburg

Current Time: Jul 29, 2015 at 8:43:39 PM

Latest Report: Jul 29, 2015 at 8:00 PM


Visibility: 37 mi

Pressure: 29.74 "Hg

Humidity: 54%

Dew point: 45 °F

Location of MagdeburgLocation

Historic Weather in Magdeburg — Graph

°F

Magdeburg temperature yesterday

Maximum temperature yesterday: 68 °F (at 7:00 PM)
Minimum temperature yesterday: 58 °F (at 5:00 AM)
Average temperature yesterday: 63 °F

Past Weeks' High & Low Weather Summary

 TemperatureHumidityPressure
High90 °F (Jul 17, 6:00 PM)97% (Jul 16, 4:00 AM)30.12 "Hg (Jul 16, 4:00 AM)
Low55 °F (Jul 29, 6:00 AM)36% (Jul 18, 7:00 PM)29.54 "Hg (Jul 25, 2:00 PM)
Average68 °F68%29.87 "Hg
* Reported Jul 14 7:00 PM — Jul 29 7:00 PM, Magdeburg, Weather by CustomWeather, © 2015

Note: Actual official high and low records may vary slightly from our data, if they occured in-between our weather recording intervals... More about our weather records

Advertising

Magdeburg weather history for previous 24 hours

 ConditionsComfort  
Time TempWeatherWind HumidityBarometerVisibility
7:00 PM
Wed, Jul 29
63 °FPassing clouds.7 mph48%29.73 "Hg37 mi
6:00 PM62 °FPartly sunny.6 mph57%29.73 "Hg37 mi
5:00 PM60 °FPartly sunny.6 mph58%29.73 "Hg37 mi
4:00 PM60 °FOvercast.6 mph60%29.73 "Hg37 mi
3:00 PM67 °FPartly sunny.7 mph42%29.69 "Hg37 mi
2:00 PM64 °FPartly sunny.6 mph54%29.70 "Hg37 mi
1:00 PM64 °FOvercast.5 mph50%29.69 "Hg37 mi
12:00 PM65 °FPartly sunny.6 mph53%29.70 "Hg37 mi
10:00 AM63 °FScattered clouds.6 mph55%29.73 "Hg37 mi
9:00 AM61 °FScattered clouds.6 mph61%29.73 "Hg37 mi
8:00 AM59 °FPassing clouds.5 mph66%29.72 "Hg37 mi
7:00 AM56 °FPassing clouds.6 mph71%29.73 "Hg37 mi
6:00 AM55 °FPassing clouds.5 mph74%29.73 "Hg37 mi
4:00 AM56 °FPassing clouds.5 mph74%29.74 "Hg34 mi
3:00 AM56 °FPassing clouds.3 mph73%29.74 "Hg34 mi
2:00 AM59 °FOvercast.5 mph65%29.73 "Hg40 mi
1:00 AM60 °FOvercast.5 mph63%29.74 "Hg43 mi
11:00 PM
Tue, Jul 28
61 °FOvercast.5 mph62%29.72 "Hg43 mi
10:00 PM62 °FOvercast.5 mph61%29.72 "Hg43 mi
9:00 PM64 °FOvercast.3 mph59%29.70 "Hg37 mi
8:00 PM66 °FOvercast.7 mph54%29.70 "Hg37 mi
Weather by CustomWeather, © 2015

See weather overviewHow to use our weather pages